Погода в Дачу-Борзое

Россия / Чеченская Республика     43°00′31″N   45°43′34″E
темп.,
°C
ветер,
м/с
пор.,
м/с
влажн.,
%
обл.,
%
осадки,
мм/ч
давл.,
гПа
погр.,
м
8 мая, сб
сб800:00+10ю228338 0.0 102029
03:00+10ю33791 0.0 101937
06:00+12ююв22665 0.0 101858
09:00+19ссв33465 0.0 1016861
12:00+22с3343100 0.0 10141191
15:00+21ссв435065 0.0 10131157
18:00+17с127677 0.0 1013104
21:00+13ю22831 0.0 101328
9 мая, вс
вс900:00+12ю33645 0.0 101244
03:00+12ю345615 0.0 100957
06:00+13ю2359100 0.0 100946
09:00+19с3247100 0.0 1008442
12:00+21ссз32531 0.0 10071032
15:00+20сз4462100 0.0 10071415
18:00+10сз41098100 7.7 1014769
21:00+6сз31095100 10.6 1021901
10 мая, пн
пн1000:00+5зсз3893100 1.3 1023749
03:00+4зюз2593100 3.8 1024609
06:00+4ююз2593100 2.4 1023591
09:00+5ю3582100 5.0 1024503
12:00+11ссз3450100 0.1 10202053
15:00+10сз2254100 0.3 10191535
18:00+9ююв126772 0.2 1020398
21:00+5ю238369 0.2 102249
11 мая, вт
вт1100:00+4ю227989 0.0 102159
03:00+5ююв127687 0.0 102082
06:00+4ююв237010 0.0 1021108
09:00+10ссв226194 0.0 10181145
12:00+13ссв3352100 0.0 10161543
15:00+13св225692 0.0 10161286
18:00+12ссв236943 0.0 1017311
21:00+7ю229147 0.0 101927
12 мая, ср
ср1200:00+6ю228726 0.0 101924
03:00+6ю228241 0.0 101823
06:00+8ююз01740 0.0 101868
09:00+13с21631 0.0 1017660
12:00+17с32555 0.0 10151025
15:00+18с32555 0.0 10151096
18:00+15ссв23730 0.0 1016261
21:00+10ю22930 0.0 101718